Preview of NWS' New Version of Forecast
This preview is not operational and should not be used for support decisions.

Regional Weather Roundup (RWR)

Issued by National Weather Service (NWS)

                            
000
ASUS45 KCYS 220610
RWRWY 

WYOMING REGIONAL WEATHER ROUNDUP
NATIONAL WEATHER SERVICE CHEYENNE WY
1200 AM MDT MON APR 22 2019

NOTE:  "FAIR" INDICATES FEW OR NO CLOUDS BELOW 12,000 FEET
WITH NO SIGNIFICANT WEATHER AND/OR OBSTRUCTIONS TO VISIBILITY.

WYZ001-220700-
...YELLOWSTONE NATIONAL PARK...
  
CITY           SKY/WX    TMP DP  RH WIND       PRES   REMARKS
LK YELLOWSTONE   N/A     32  24  72 VRB5      30.18R WCI  27          
6HR MIN TEMP:  31; 6HR MAX TEMP:  39;                                

W YELLOWSTONE  NOT AVBL                                               

$$
WYZ002>013-054>058-071-098>099-220700-
...NORTHERN WYOMING...
  
CITY           SKY/WX    TMP DP  RH WIND       PRES   REMARKS
JACKSON        LGT RAIN  39  34  82 N12       30.12R WCI  32          
CODY           CLOUDY    37  31  78 NW12      30.23R WCI  29          
GREYBULL       LGT RAIN  43  40  89 NW7       30.19R                  
6HR MIN TEMP:  43; 6HR MAX TEMP:  49; 6HR PCP:  0.02;                

WORLAND        CLOUDY    41  39  93 SW7       30.21R                  
6HR MIN TEMP:  41; 6HR MAX TEMP:  44; 6HR PCP:  0.11;                

SHERIDAN       CLOUDY    43  41  93 CALM      30.24R                  
6HR MIN TEMP:  43; 6HR MAX TEMP:  45; 6HR PCP:  0.05;                

BUFFALO        CLOUDY    41  39  93 N6        30.22S                  
6HR MIN TEMP:  40; 6HR MAX TEMP:  42; 6HR PCP:  0.04;                

GILLETTE       CLOUDY    40  40 100 N7        30.21R                  
6HR MIN TEMP:  40; 6HR MAX TEMP:  42;                                

HULETT         CLOUDY    41  39  93 CALM      30.22R                  
NEWCASTLE      DRIZZLE   41  37  87 N3        30.20R                  

$$
WYZ014>020-022>026-101>103-220700-
...CENTRAL WYOMING...
  
CITY           SKY/WX    TMP DP  RH WIND       PRES   REMARKS
BIG PINEY      LGT RAIN  34  32  92 NW6       30.14R WCI  29          
6HR MIN TEMP:  34; 6HR MAX TEMP:  40; 6HR PCP:  0.02;                

PINEDALE       DRIZZLE   37  36  93 CALM      30.14R                  
DUBOIS         CLOUDY    32  32 100 E10G17    30.16S WCI  24          
LANDER         LGT RAIN  37  34  89 W6        30.19S FOG     WCI  32  
6HR MIN TEMP:  37; 6HR MAX TEMP:  41; 6HR PCP:  0.15;                

RIVERTON       LGT RAIN  38  34  85 CALM      30.21R                  
6HR MIN TEMP:  38; 6HR MAX TEMP:  39; 6HR PCP:  0.02;                

CASPER         LGT RAIN  39  39 100 NE10      30.18S FOG     WCI  32  
6HR MIN TEMP:  39; 6HR MAX TEMP:  41; 6HR PCP:  0.13;                

DOUGLAS        LGT RAIN  40  40 100 N10       30.18  FOG     WCI  33  
6HR MIN TEMP:  40; 6HR MAX TEMP:  45; 6HR PCP:  0.14;                


$$
WYZ021-027>030-104>119-220700-
...SOUTHERN WYOMING...
  
CITY           SKY/WX    TMP DP  RH WIND       PRES   REMARKS
EVANSTON       CLOUDY    37  34  89 NE7       30.10R WCI  32          
6HR MIN TEMP:  37; 6HR MAX TEMP:  41; 6HR PCP:  0.05;                

KEMMERER       LGT SNOW  32  32 100 NE17      30.13R WCI  21          
FORT BRIDGER   SNOW      34  34 100 S7        30.15  VSB 1/2 WCI  28  
ROCK SPRINGS   LGT RAIN  35  33  92 NE21      30.11R WCI  24          
6HR MIN TEMP:  35; 6HR MAX TEMP:  40; 6HR PCP:  0.02;                

DIXON          FAIR      43  34  71 NE17      30.10R                  
RAWLINS        LGT RAIN  36  34  92 NE12      30.15  WCI  28          
6HR MIN TEMP:  36; 6HR MAX TEMP:  42; 6HR PCP:  0.43;                

SARATOGA       CLOUDY    41  41 100 NW3       30.12S                  
LARAMIE        NOT AVBL                                               
CHEYENNE       CLOUDY    38  38 100 N10       30.14R FOG     WCI  31  
6HR MIN TEMP:  38; 6HR MAX TEMP:  47; 6HR PCP: TRACE;                

TORRINGTON     LGT RAIN  41  40  96 N9        30.14R                  
6HR MIN TEMP:  41; 6HR MAX TEMP:  48; 6HR PCP:  0.10;                

PINE BLUFFS    CLOUDY    41  39  93 N16       30.12S                  

$$